This is the latest recevied weather packets stored in our database for station/object N8BAP. If no packets are shown the sender has not sent any weather packets the latest 10 day(s).
| Time | Temp. | Humidity | Pressure | Rain* | Wind** | Luminosity | Snow |
|---|---|---|---|---|---|---|---|
| 1788619598 | 23.89° C | 86% | 1019.8 hPa | 0 mm | - | 492 W/m² | - |
| 1788619297 | 23.33° C | 89% | 1019.5 hPa | 0 mm | - | 443 W/m² | - |
| 1788618996 | 22.78° C | 90% | 1019.2 hPa | 0 mm | - | 275 W/m² | - |
| 1788618692 | 22.78° C | 89% | 1018.6 hPa | 0 mm | - | 186 W/m² | - |
| 1788618385 | 22.78° C | 90% | 1018.9 hPa | 0 mm | - | 165 W/m² | - |
| 1788618084 | 22.78° C | 91% | 1018.3 hPa | 0 mm | - | 187 W/m² | - |
| 1788617779 | 22.78° C | 90% | 1018.1 hPa | 0 mm | - | 144 W/m² | - |
| 1788617475 | 22.22° C | 90% | 1017.9 hPa | 0 mm | - | 154 W/m² | - |
| 1788617171 | 22.22° C | 90% | 1017.8 hPa | 0 mm | - | 163 W/m² | - |
| 1788616870 | 21.67° C | 91% | 1017.5 hPa | 0 mm | - | 184 W/m² | - |
| 1788616565 | 21.67° C | 93% | 1017.4 hPa | 0 mm | - | 203 W/m² | - |
| 1788616260 | 21.11° C | 93% | 1018 hPa | 0 mm | - | 199 W/m² | - |
| 1788615955 | 21.11° C | 94% | 1018.6 hPa | 0 mm | - | 181 W/m² | - |
| 1788615669 | 20.56° C | 94% | 1019.1 hPa | 0 mm | - | 138 W/m² | - |
| 1788615349 | 20.56° C | 93% | 1019 hPa | 0 mm | - | 122 W/m² | - |
| 1788615048 | 20.56° C | 92% | 1019.3 hPa | 9.65 mm | - | 77 W/m² | - |
| 1788614743 | 20.56° C | 92% | 1019.6 hPa | 10.67 mm | - | 31 W/m² | - |
| 1788614437 | 20.56° C | 94% | 1020.4 hPa | 1.27 mm | - | 12 W/m² | - |
| 1788614133 | 20.56° C | 95% | 1020.6 hPa | 0 mm | - | 16 W/m² | - |
| 1788613828 | 20.56° C | 95% | 1020.6 hPa | 0 mm | - | 25 W/m² | - |
| 1788613527 | 20.56° C | 95% | 1020.2 hPa | 0 mm | - | 27 W/m² | - |
| 1788613223 | 20.56° C | 95% | 1020.6 hPa | 0 mm | - | 48 W/m² | - |
| 1788612922 | 20.56° C | 95% | 1020.8 hPa | 0 mm | - | 43 W/m² | - |
| 1788612618 | 20.56° C | 96% | 1020.6 hPa | 0 mm | - | 44 W/m² | - |
| 1788612314 | 20.56° C | 96% | 1021 hPa | 0 mm | - | 48 W/m² | - |
* Rain latest hour (hover to see other rain measurements)
** Current wind speed in m/s (hover to see current wind gust speed)